Flag for Austria Weather past 2 weeks in Amstetten, Lower Austria, Austria

Now
57 °F

Passing clouds.


Feels Like: 56 °F
Forecast: 51 / 74 °F
Wind: 5 mph from East

Location: Linz / Hoersching-Flughafen

Current Time: Sep 16, 2014 at 5:34:09 AM

Latest Report: Sep 16, 2014 at 5:00 AM


Visibility: 4 mi

Pressure: 30.01 "Hg

Humidity: 94%

Dew point: 55 °F

Location of AmstettenLocation

Historic Weather in Amstetten — Graph

°F

Amstetten temperature yesterday

Maximum temperature yesterday: 71 °F (at 4:00 PM)
Minimum temperature yesterday: 55 °F (at 5:00 AM)
Average temperature yesterday: 61 °F

Past Weeks' High & Low Weather Summary

 TemperatureHumidityPressure
High79 °F (Sep 8, 5:00 PM)100% (Sep 6, 12:00 AM)30.15 "Hg (Sep 6, 12:00 AM)
Low53 °F (Sep 13, 4:00 AM)44% (Sep 8, 5:00 PM)29.88 "Hg (Sep 6, 5:00 PM)
Average61 °F86%30.01 "Hg
* Reported Sep 1 4:00 AM — Sep 16 4:00 AM, Amstetten, Weather by CustomWeather, © 2014

Note: Actual official high and low records may vary slightly from our data, if they occured in-between our weather recording intervals... More about our weather records

Advertising

Amstetten weather history for previous 24 hours

 ConditionsComfort  
Time TempWeatherWind HumidityBarometerVisibility
4:00 AM
Sep 16
56 °FPassing clouds.5 mph94%30.01 "Hg6 mi
3:00 AM57 °FCool.3 mph90%30.01 "Hg10 mi
2:00 AM58 °FPassing clouds.3 mph87%30.01 "Hg12 mi
1:00 AM59 °FCool.5 mph87%30.01 "Hg12 mi
12:00 AM59 °FCool.3 mph88%30.03 "Hg9 mi
11:00 PM
Sep 15
60 °FPassing clouds.6 mph85%30.03 "Hg9 mi
10:00 PM60 °FPassing clouds.3 mph87%30.03 "Hg7 mi
9:00 PM64 °FPassing clouds.5 mph78%30.02 "Hg11 mi
8:00 PM65 °FPassing clouds.5 mph74%30.01 "Hg14 mi
7:00 PMN/APassing clouds.14 mphN/AN/A3 mi
6:00 PMN/APassing clouds.44 mphN/AN/A2 mi
5:00 PM71 °FScattered clouds.7 mph59%29.98 "Hg22 mi
4:00 PM71 °FScattered clouds.6 mph60%29.98 "Hg16 mi
3:00 PM70 °FScattered clouds.5 mph65%30.00 "Hg16 mi
2:00 PM68 °FPartly sunny.6 mph68%30.02 "Hg17 mi
1:00 PM67 °FPartly sunny.5 mph68%30.03 "Hg19 mi
12:00 PM65 °FPartly sunny.3 mph73%30.04 "Hg17 mi
11:00 AM62 °FPartly sunny.3 mph77%30.05 "Hg3 mi
10:00 AM58 °FLow clouds.N/A91%30.06 "Hg2 mi
9:00 AMN/APassing clouds.20 mphN/AN/A2 mi
8:00 AM55 °FLight snow. Dense fog.N/A99%30.06 "Hg1 mi
6:00 AM56 °FLight rain. Low clouds.N/A98%30.05 "Hg1 mi
5:00 AM55 °FLow clouds.N/A98%30.05 "Hg2 mi
Weather by CustomWeather, © 2014

See weather overviewHow to use our weather pages